STARLINK-30853, 58236

Orbit data source: Space-Track

STARLINK-30853, 58236 is a payload satellite owned by SpaceX/Seattle (US) in LEO that was launched on Wed, 08 Nov 2023 UTC via an FALCON 9 launch vehicle from the Air Force Eastern Test Range (AFETR). Payload-class satellites include a variety of spacecraft equipped with specific instruments for various scientific and technological missions. These include communications satellites like Starlink; space stations such as the ISS; scientific satellites like the Hubble; Earth observation satellites from companies like Planet Labs, Umbra, and HawkEye 360; GPS; miniature CubeSats for education and research; and military/defense satellites.

Loading next visibility...
Identifier
58236, 2023-171G
Orbit
LEO
Country
Flag of USUS
Related business
Manufacturer
SpaceX/Seattle
Mission
Operational Commercial Communications
Bus & Motor
STARLINK V2M, Unknown motor
Mass
730 kg wet, ~700 kg dry
Launch date (UTC)
2023-11-08 (3 years ago)
Launch vehicle
FALCON 9
Launch site
Air Force Eastern Test Range (AFETR)
Object type
Payload
Rocket body
Debris
Shape & HBR
Box + 2 Pan, 17.7 m
Radar Cross Section
33.884 m², Large (>1 m²)

Expand to show TLE details & history
Last TLE update: 2 days ago

TLE from 2 days ago
0 STARLINK-30853
1 58236U 23171G   26171.03591453  .00000351  00000-0  22297-4 0  9990
2 58236  43.0051  67.5280 0001666 255.1288 104.9380 15.27574036145383
Epoch: 2026-06-20T00:51Z
TLE epoch observation values (Epoch: 2026-06-20T00:51:43.015Z)
Latitude
0.00004°
Longitude
146.3425°
Altitude
483.138 km
Speed
7.625 km/s
True Right ascension
04h 30m 06s
True Declination
0° 00' 00"
Sunlit
Object was in daylight at epoch
Visualization orbit readout
Latitude
Unknown
Longitude
Unknown
Altitude
Unknown
Speed
Unknown
Apparent Right ascension
Unknown
Apparent Declination
Unknown
Sunlit
N/A
Visualization observer readout
Local Sidereal Time
21:26:04
Azimuth
Unknown
Elevation
Unknown
Doppler factor
Unknown
Orbital elements
Apogee altitude
486.155 km
Perigee altitude
483.868 km
Semi-major axis
6,863.148 km
Eccentricity
0.00017
Inclination
43.0051°
RAAN
67.528°
Arg. of periapsis
255.1288°
True anomaly
104.95644°
Mean anomaly
104.938°
Eccentric anomaly
104.94722°
Mean motion
3.81732 °/min
Orbital period
94.31 mins
BSTAR
0.000022297
Loading maneuver chart data...
Computing Atmospheric mass density...
Loading historical data...
Loading historical data...
Loading historical data...
Loading historical data...
Loading historical data...
Loading historical data...
Loading historical data...

Documentation

Showing up to 5 results
|